Tracking 19638 objects as of 21-Apr-2019
HD Live streaming from Space Station
objects crossing your sky now

COSMOS 1363

Track COSMOS 1363 now!
10-day predictions
COSMOS 1363 is classified as:


NORAD ID: 13166
Int'l Code: 1982-040G
Perigee: 1,481.1 km
Apogee: 1,511.6 km
Inclination: 74.0 °
Period: 115.7 minutes
Semi major axis: 7867 km
RCS: 0.7318 m2 (medium)
Launch date: May 6, 1982
Source: Commonwealth of Independent States (former USSR) (CIS)
Launch site: PLESETSK MISSILE AND SPACE COMPLEX (PKMTR)
aabbcc
Your satellite tracking list
Your tracking list is empty




NASA's NSSDC Master Catalog

Two Line Element Set (TLE):
1 13166U 82040G   19111.20214612 -.00000002  00000-0  94870-4 0  9997
2 13166  74.0152  25.7123 0019380 353.1087 161.2901 12.44120566678693
Source of the keplerian elements: AFSPC